Terug naar catalogus

USA 313

ActiefMilitairVLEO
NORAD 47295·PAYLOAD·🇺🇸 United States

Gelanceerd Dec 19, 2020 vanaf Cape Canaveral Space Force Station

Loading…

Volgende Passages (komende 24 uur)

TLE

VerouderdSource: Mike McCants

Epoch: May 28, 2023, 20:26 UTC

1 47295U 20101B   23148.85178512 0.00070000  00000-0  16435-2 0    07
2 47295  52.9951  94.9729 0008000  85.7004 274.2995 15.41419832    08

Volg USA 313 in realtime met AllMySat

Download on the App Store